W4IFI Weather Reports


Display with metric or nautical units.
time (UTC)temp
F
wind
direction
speed
MPH
gust
MPH
rain 1hr
in
rain 24hr
in
rain mn
in
humidity
%
barometer
mb
20180223215837 44 188 0.0 1.0 0.00 0.13 0.05 94 1027.9
20180223214937 44 0 0.0 0.0 0.00 0.14 0.05 94 1028.2
20180223214037 44 206 0.0 3.0 0.00 0.14 0.05 94 1028.1
20180223213137 44 217 1.0 3.0 0.00 0.14 0.05 94 1028.1
20180223212237 44 212 1.0 5.0 0.00 0.14 0.05 94 1028.2
20180223211337 44 222 2.0 6.0 0.00 0.14 0.05 94 1028.3
20180223210437 44 246 3.0 10.0 0.00 0.14 0.05 94 1028.3
20180223205537 44 245 2.0 9.0 0.00 0.14 0.05 93 1028.3
20180223204637 44 228 1.0 4.0 0.00 0.14 0.05 94 1028.4
20180223203737 44 221 1.0 5.0 0.00 0.14 0.05 93 1028.6
20180223202837 44 195 1.0 6.0 0.00 0.14 0.05 93 1028.8
20180223201937 44 239 2.0 8.0 0.00 0.14 0.05 93 1028.9
20180223201037 43 264 2.0 8.0 0.00 0.14 0.05 94 1028.9
20180223200137 43 261 3.0 8.0 0.00 0.14 0.05 93 1029.2
20180223195237 43 246 2.0 8.0 0.00 0.14 0.05 93 1029.4
20180223194337 43 246 2.0 8.0 0.00 0.14 0.05 93 1029.5
20180223193437 43 231 2.0 5.0 0.00 0.14 0.05 94 1029.8
20180223192537 43 225 2.0 5.0 0.00 0.14 0.05 94 1030.2
20180223191637 43 249 2.0 8.0 0.00 0.14 0.05 94 1030.1
20180223190737 43 232 2.0 7.0 0.00 0.14 0.05 94 1030.4
20180223185837 43 243 2.0 8.0 0.00 0.14 0.05 94 1030.5
20180223184937 42 252 2.0 7.0 0.00 0.14 0.05 94 1030.7
20180223184037 42 242 1.0 5.0 0.00 0.14 0.05 94 1030.8
20180223183137 42 234 2.0 7.0 0.00 0.14 0.05 94 1030.8
20180223182237 42 187 2.0 6.0 0.00 0.14 0.05 95 1030.8
20180223181337 42 187 2.0 7.0 0.00 0.14 0.05 95 1031.0
20180223180438 42 201 2.0 6.0 0.00 0.14 0.05 95 1031.4
20180223175537 42 199 1.0 5.0 0.00 0.14 0.05 96 1031.8
20180223174637 42 222 1.0 6.0 0.00 0.14 0.05 96 1032.5
20180223173737 41 238 1.0 4.0 0.00 0.14 0.05 95 1032.7
20180223172837 41 202 1.0 4.0 0.00 0.14 0.05 95 1032.9
20180223171937 41 201 0.0 3.0 0.00 0.14 0.05 96 1033.3
20180223171037 41 200 0.0 1.0 0.00 0.14 0.05 96 1033.6
20180223170137 41 204 1.0 4.0 0.00 0.14 0.05 96 1033.6
20180223165237 41 216 1.0 3.0 0.00 0.14 0.05 96 1033.9
20180223164337 41 199 0.0 2.0 0.00 0.14 0.05 96 1033.9
20180223163437 40 203 1.0 4.0 0.00 0.14 0.05 96 1033.8
20180223162537 40 201 1.0 4.0 0.00 0.14 0.05 96 1034.2
20180223161637 40 162 1.0 5.0 0.00 0.14 0.05 96 1034.1
20180223160737 40 201 0.0 5.0 0.00 0.14 0.05 96 1034.3
20180223155837 40 197 0.0 2.0 0.00 0.14 0.05 96 1034.6
20180223154937 40 232 1.0 3.0 0.00 0.14 0.05 96 1034.6
20180223154037 40 226 1.0 5.0 0.00 0.14 0.05 96 1034.7
20180223153137 40 205 1.0 5.0 0.00 0.14 0.05 96 1034.9
20180223152237 39 206 2.0 5.0 0.00 0.14 0.05 96 1034.8
20180223151337 39 213 2.0 6.0 0.00 0.14 0.05 96 1034.8
20180223150437 39 0 0.0 0.0 0.00 0.14 0.05 97 1035.2
20180223145537 39 142 0.0 2.0 0.00 0.14 0.05 96 1035.2
20180223144637 39 140 0.0 2.0 0.00 0.14 0.05 96 1035.3
20180223143737 39 126 0.0 2.0 0.00 0.14 0.05 96 1035.4
20180223142837 39 120 1.0 3.0 0.00 0.14 0.05 97 1035.3
20180223141937 39 120 1.0 3.0 0.00 0.14 0.05 96 1035.5
20180223141037 39 120 1.0 3.0 0.00 0.14 0.05 96 1035.8
20180223140137 39 147 0.0 3.0 0.00 0.14 0.05 97 1035.7
20180223135237 39 0 0.0 0.0 0.00 0.14 0.05 97 1035.7
20180223134337 39 0 0.0 0.0 0.00 0.14 0.05 96 1035.8
20180223133437 38 127 1.0 4.0 0.00 0.14 0.05 96 1035.7
20180223132537 38 119 1.0 4.0 0.00 0.14 0.05 96 1035.8
20180223131637 38 120 0.0 1.0 0.00 0.14 0.05 97 1036.0
20180223130737 38 114 1.0 4.0 0.01 0.14 0.05 97 1035.7
20180223125837 38 0 0.0 0.0 0.01 0.14 0.05 96 1035.8
20180223124937 38 99 0.0 3.0 0.03 0.14 0.05 96 1035.8
20180223124037 38 107 0.0 4.0 0.03 0.14 0.05 96 1035.9
20180223123137 38 118 0.0 4.0 0.03 0.14 0.05 96 1035.8
20180223122237 38 117 2.0 3.0 0.03 0.14 0.05 96 1035.7
20180223121337 38 112 1.0 4.0 0.03 0.14 0.05 96 1035.6
20180223120437 38 112 0.0 1.0 0.02 0.13 0.04 96 1035.8
20180223115537 38 112 0.0 1.0 0.01 0.12 0.04 96 1035.9
20180223114637 38 109 1.0 3.0 0.01 0.11 0.02 96 1035.7
20180223113737 38 103 1.0 3.0 0.01 0.11 0.02 96 1035.6
20180223112837 38 102 1.0 3.0 0.01 0.11 0.02 96 1035.6
20180223111937 38 102 0.0 2.0 0.01 0.11 0.02 96 1035.6
20180223111037 38 0 0.0 0.0 0.01 0.11 0.02 96 1035.6
20180223110137 38 102 0.0 2.0 0.01 0.11 0.02 96 1035.5
20180223105237 38 104 1.0 4.0 0.02 0.11 0.02 96 1035.5
20180223104337 38 105 1.0 4.0 0.01 0.10 0.01 96 1035.5
20180223103437 39 114 1.0 2.0 0.01 0.10 0.01 96 1035.6
20180223102537 39 109 0.0 3.0 0.01 0.10 0.01 96 1035.6
20180223101637 39 103 1.0 4.0 0.01 0.10 0.01 96 1035.8
20180223100737 39 90 0.0 1.0 0.01 0.10 0.01 96 1035.8
20180223095837 39 103 1.0 4.0 0.00 0.09 0.00 96 1035.5
20180223094937 39 106 0.0 4.0 0.00 0.09 0.00 96 1035.9
20180223094037 39 0 0.0 0.0 0.00 0.09 0.00 96 1035.7
20180223093137 39 0 0.0 0.0 0.00 0.09 0.00 96 1036.0
20180223092237 39 0 0.0 0.0 0.00 0.09 0.00 96 1035.6
20180223091337 39 0 0.0 0.0 0.00 0.09 0.00 96 1035.8
20180223090437 39 0 0.0 0.0 0.00 0.09 0.00 96 1035.7
20180223085537 39 112 1.0 4.0 0.00 0.09 0.00 96 1036.0
20180223084637 39 110 1.0 6.0 0.00 0.09 0.00 96 1036.0
20180223083737 39 0 0.0 0.0 0.00 0.09 0.00 96 1036.1
20180223082837 39 88 0.0 2.0 0.00 0.09 0.00 96 1036.0
20180223081937 39 105 1.0 2.0 0.00 0.09 0.00 96 1035.9
20180223081037 39 119 2.0 4.0 0.00 0.09 0.00 96 1036.0
20180223080137 39 125 0.0 4.0 0.00 0.09 0.00 96 1035.7
20180223075237 39 100 2.0 6.0 0.00 0.09 0.00 96 1035.9
20180223074337 39 114 2.0 6.0 0.00 0.09 0.00 96 1036.0
20180223073437 39 100 1.0 6.0 0.00 0.09 0.00 96 1036.1
20180223072537 39 113 2.0 6.0 0.00 0.09 0.00 95 1036.1
20180223071638 39 113 1.0 6.0 0.00 0.09 0.00 96 1036.5
20180223070737 39 111 0.0 2.0 0.00 0.09 0.00 95 1036.4
20180223065837 39 113 2.0 4.0 0.00 0.09 0.00 95 1036.1
20180223064937 39 104 2.0 4.0 0.00 0.09 0.00 95 1035.8
20180223064037 40 110 1.0 4.0 0.00 0.09 0.00 95 1036.2
20180223063137 40 81 1.0 4.0 0.00 0.09 0.00 95 1035.6
20180223062237 40 51 1.0 3.0 0.00 0.09 0.00 95 1036.0
20180223061337 40 51 1.0 3.0 0.00 0.09 0.00 95 1036.0
20180223060437 40 62 1.0 3.0 0.00 0.09 0.00 94 1036.3
20180223055537 40 63 1.0 3.0 0.00 0.09 0.00 94 1035.9
20180223054637 40 63 1.0 3.0 0.00 0.09 0.00 94 1036.1
20180223053737 40 46 2.0 4.0 0.00 0.09 0.00 94 1036.3
20180223052837 40 37 1.0 3.0 0.00 0.09 0.00 93 1036.4
20180223051937 40 39 2.0 4.0 0.00 0.09 0.00 93 1036.2
20180223051038 40 74 2.0 3.0 0.00 0.09 0.00 93 1036.3
20180223050137 41 73 2.0 3.0 0.00 0.09 0.00 93 1036.0
20180223045237 41 37 2.0 3.0 0.00 0.09 0.09 93 1036.2
20180223044337 41 34 0.0 4.0 0.00 0.09 0.09 93 1036.4
20180223043437 41 72 1.0 3.0 0.00 0.09 0.09 93 1035.7
20180223042537 41 93 2.0 6.0 0.00 0.09 0.09 93 1035.8
20180223041637 41 68 2.0 3.0 0.00 0.09 0.09 93 1036.2
20180223040737 41 69 1.0 2.0 0.00 0.09 0.09 93 1036.1
20180223035837 42 61 1.0 2.0 0.00 0.09 0.09 93 1036.4
20180223034937 42 89 2.0 4.0 0.00 0.09 0.09 93 1036.2
20180223034037 42 53 1.0 4.0 0.00 0.09 0.09 93 1036.4
20180223033137 42 58 1.0 3.0 0.00 0.09 0.09 94 1036.4
20180223032237 42 86 1.0 3.0 0.00 0.09 0.09 95 1036.4
20180223031338 42 53 2.0 6.0 0.00 0.09 0.09 95 1036.2
20180223030437 42 52 2.0 5.0 0.00 0.09 0.09 95 1036.1
20180223025538 42 43 3.0 5.0 0.00 0.09 0.09 95 1036.1
20180223024637 42 40 2.0 4.0 0.00 0.09 0.09 95 1036.4
20180223023737 42 39 3.0 4.0 0.00 0.09 0.09 95 1035.8
20180223022838 42 36 2.0 4.0 0.00 0.09 0.09 95 1035.9
20180223021937 42 35 2.0 4.0 0.00 0.09 0.09 95 1035.9
20180223021037 42 33 2.0 4.0 0.00 0.09 0.09 94 1035.8
20180223020137 42 42 2.0 4.0 0.00 0.09 0.09 94 1035.7
20180223015237 42 42 2.0 5.0 0.00 0.09 0.09 94 1035.5
20180223014337 42 44 2.0 4.0 0.00 0.09 0.09 94 1035.5
20180223013437 42 42 3.0 5.0 0.00 0.09 0.09 94 1035.3
20180223012537 42 39 3.0 5.0 0.00 0.09 0.09 94 1035.4
20180223011637 42 37 3.0 5.0 0.00 0.09 0.09 94 1035.4
20180223010737 42 40 3.0 4.0 0.00 0.09 0.09 94 1035.4
20180223005837 42 36 3.0 6.0 0.00 0.09 0.09 94 1035.1
20180223004937 42 38 3.0 6.0 0.00 0.09 0.09 94 1035.0
20180223004038 42 42 4.0 8.0 0.00 0.09 0.09 94 1035.1
20180223003137 42 43 3.0 5.0 0.00 0.10 0.09 94 1035.3
20180223002237 42 41 3.0 5.0 0.00 0.13 0.09 94 1035.1
20180223001337 42 45 3.0 7.0 0.00 0.18 0.09 94 1034.9
20180223000437 42 38 3.0 7.0 0.00 0.18 0.09 94 1034.9
20180222235537 42 34 4.0 9.0 0.00 0.18 0.09 94 1034.8
20180222234637 42 36 4.0 9.0 0.00 0.18 0.09 94 1034.6
20180222233737 42 35 4.0 7.0 0.00 0.18 0.09 94 1034.8
20180222232837 42 42 4.0 6.0 0.01 0.18 0.09 94 1034.6
20180222231937 42 41 4.0 8.0 0.01 0.18 0.09 94 1034.6
20180222231037 43 39 4.0 8.0 0.02 0.18 0.09 94 1033.8
20180222230137 43 38 3.0 6.0 0.08 0.18 0.09 94 1034.2
20180222225237 43 41 2.0 5.0 0.09 0.18 0.09 94 1034.3
20180222224337 43 38 4.0 6.0 0.09 0.18 0.09 95 1034.1
20180222223437 43 42 3.0 6.0 0.09 0.18 0.09 94 1033.9
20180222222537 43 40 3.0 5.0 0.08 0.17 0.08 94 1034.0
20180222221637 43 39 3.0 5.0 0.08 0.17 0.08 94 1033.8
20180222220737 43 46 3.0 8.0 0.05 0.14 0.06 94 1033.7